Date,TemperatureHighF,TemperatureAvgF,TemperatureLowF,DewpointHighF,DewpointAvgF,DewpointLowF,HumidityHigh,HumidityAvg,HumidityLow,PressureMaxIn,PressureMinIn,WindSpeedMaxMPH,WindSpeedAvgMPH,GustSpeedMaxMPH,PrecipitationSumIn
2013-3-1,41,37,32,32,28,24,84,72,56,0.00,40.00,9,5,20,0.00
2013-3-2,33,31,29,25,22,21,76,69,61,0.00,40.00,9,4,20,0.00
2013-3-3,36,31,28,24,21,18,76,65,52,0.00,40.00,13,6,26,0.00
2013-3-4,42,32,26,22,18,16,77,58,40,0.00,40.00,16,6,32,0.00
2013-3-5,53,39,27,33,21,13,92,55,22,0.00,40.00,9,-11,19,0.01
2013-3-6,45,37,33,39,33,29,99,86,58,0.00,40.00,9,2,19,0.74
2013-3-7,46,41,37,35,30,27,90,67,50,0.00,40.00,13,4,22,0.00
2013-3-8,44,38,35,34,30,28,88,72,60,0.00,40.00,10,4,29,0.00
2013-3-9,61,42,27,37,29,22,99,67,25,0.00,40.00,4,1,10,0.00
2013-3-10,70,47,31,37,32,29,98,64,26,0.00,40.00,4,1,12,0.00
2013-3-11,60,52,43,52,39,34,98,64,38,0.00,40.00,6,1,14,0.06
2013-3-12,52,46,41,52,41,28,99,82,59,0.00,40.00,12,5,23,0.12
2013-3-13,43,37,32,35,27,20,92,69,40,0.00,40.00,16,6,29,0.01
2013-3-14,42,35,30,23,19,17,68,53,39,0.00,40.00,16,8,36,0.00
2013-3-15,57,43,28,38,29,20,90,61,42,0.00,40.00,13,4,29,0.00
2013-3-16,51,44,41,43,41,37,99,88,58,0.00,40.00,7,2,15,0.00
2013-3-17,43,40,35,42,31,26,99,71,53,0.00,40.00,7,3,17,0.00
2013-3-18,37,33,31,35,32,26,99,93,65,0.00,40.00,7,2,17,0.20
2013-3-19,53,42,34,40,26,10,99,61,22,0.00,40.00,20,6,35,0.00
2013-3-20,48,39,33,33,19,13,90,47,30,0.00,40.00,20,7,35,0.00
2013-3-21,33,29,26,28,16,9,81,60,40,0.00,40.00,16,5,26,0.00
2013-3-22,44,34,28,23,20,16,70,58,41,0.00,40.00,13,5,26,0.00
2013-3-23,52,38,25,32,24,21,93,63,33,0.00,40.00,10,3,19,0.00
2013-3-24,42,34,28,33,28,24,99,79,49,0.00,40.00,6,2,11,0.00
2013-3-25,40,35,32,40,35,32,99,99,99,0.00,40.00,4,0,10,0.98
2013-3-26,48,40,35,36,32,26,99,76,46,0.00,40.00,11,-3,24,0.00
2013-3-27,46,40,36,37,31,26,91,72,48,0.00,40.00,11,5,29,0.00
2013-3-28,46,42,38,35,32,31,80,70,60,0.00,40.00,13,5,23,0.00
2013-3-29,55,45,36,41,32,25,94,65,33,0.00,40.00,11,2,18,0.00
2013-3-30,60,45,30,38,27,18,94,58,20,0.00,40.00,7,2,14,0.00
2013-3-31,45,40,37,44,36,-100,99,88,57,0.00,40.00,6,1,12,0.11